EZY68EW EGAA-EGSS

Flight info

Callsign EZY68EW
Flight time N/A
Altitude 33000
Route LISBO DCT RINGA DCT BABGU DCT ETIGA DCT INKOB Q39 NOMSU UQ4 LISTO
Aircraft A320/M-SDE2E3FGHIRWXY/LB1

Departure

Time N/A
Airport Belfast International Airport (EGAA)

Arrival

Time 2026-05-04 12:26
Airport London Stansted Airport (EGSS)
Time Latitude Longitude Altitude Speed Heading
2026-05-04 11:56 53.03158 -2.06305 33069 ft 410 kts 140°
2026-05-04 11:56 53.00853 -2.03496 33087 ft 410 kts 140°
2026-05-04 11:57 52.96223 -1.97874 33072 ft 411 kts 141°
2026-05-04 11:57 52.91602 -1.92287 33063 ft 412 kts 141°
2026-05-04 11:57 52.89274 -1.89476 32391 ft 416 kts 141°
2026-05-04 11:58 52.86950 -1.86676 31899 ft 411 kts 141°
2026-05-04 11:58 52.84650 -1.83920 31412 ft 407 kts 141°
2026-05-04 11:58 52.82365 -1.81186 30939 ft 403 kts 141°
2026-05-04 11:58 52.80105 -1.78484 30481 ft 399 kts 141°
2026-05-04 11:59 52.77872 -1.75812 29995 ft 396 kts 141°
2026-05-04 11:59 52.75650 -1.73153 29479 ft 391 kts 142°
2026-05-04 11:59 52.73235 -1.70731 28994 ft 388 kts 151°
2026-05-04 11:59 52.70914 -1.68771 28562 ft 384 kts 151°
2026-05-04 12:00 52.68558 -1.66749 28122 ft 380 kts 151°
2026-05-04 12:00 52.66232 -1.64736 27684 ft 376 kts 151°
2026-05-04 12:00 52.63925 -1.62734 27224 ft 373 kts 151°
2026-05-04 12:00 52.61637 -1.60752 26780 ft 370 kts 152°
2026-05-04 12:01 52.59365 -1.58796 26327 ft 367 kts 152°
2026-05-04 12:01 52.57124 -1.56874 25881 ft 365 kts 153°
2026-05-04 12:02 52.43705 -1.45428 22976 ft 357 kts 154°
2026-05-04 12:03 52.41514 -1.43561 22513 ft 354 kts 154°
2026-05-04 12:03 52.39336 -1.41713 22051 ft 352 kts 154°
2026-05-04 12:03 52.37161 -1.39870 21597 ft 349 kts 154°
2026-05-04 12:03 52.34969 -1.38014 21143 ft 347 kts 154°
2026-05-04 12:04 52.32844 -1.36221 20700 ft 345 kts 154°
2026-05-04 12:04 52.30718 -1.34429 20270 ft 343 kts 154°
2026-05-04 12:04 52.28595 -1.32617 19868 ft 341 kts 153°
2026-05-04 12:04 52.26551 -1.30748 19541 ft 336 kts 151°
2026-05-04 12:05 52.24542 -1.28834 19204 ft 333 kts 150°
2026-05-04 12:05 52.22561 -1.26924 18868 ft 329 kts 150°
2026-05-04 12:05 52.20569 -1.25007 18533 ft 326 kts 150°
2026-05-04 12:05 52.18653 -1.23178 18192 ft 323 kts 150°
2026-05-04 12:06 52.16717 -1.21346 17846 ft 321 kts 151°
2026-05-04 12:06 52.14792 -1.19533 17526 ft 319 kts 151°
2026-05-04 12:06 52.12849 -1.17708 17202 ft 317 kts 151°
2026-05-04 12:06 52.10936 -1.15917 16876 ft 316 kts 151°
2026-05-04 12:07 52.09042 -1.14146 16562 ft 314 kts 151°
2026-05-04 12:07 52.07156 -1.12382 16246 ft 313 kts 151°
2026-05-04 12:07 52.05213 -1.10565 15886 ft 312 kts 151°
2026-05-04 12:07 52.03396 -1.08866 15571 ft 311 kts 150°
2026-05-04 12:08 52.01616 -1.06565 15243 ft 311 kts 133°
2026-05-04 12:08 52.00456 -1.03842 15022 ft 312 kts 117°
2026-05-04 12:08 51.99767 -1.00506 14910 ft 313 kts 101°
2026-05-04 12:08 51.99636 -0.96987 14552 ft 314 kts 91°
2026-05-04 12:09 51.99650 -0.93387 14202 ft 313 kts 91°
2026-05-04 12:09 51.99660 -0.89883 13880 ft 312 kts 91°
2026-05-04 12:09 51.99664 -0.86365 13513 ft 311 kts 91°
2026-05-04 12:09 51.99664 -0.82868 13152 ft 309 kts 91°
2026-05-04 12:10 51.99662 -0.79391 12806 ft 308 kts 91°
2026-05-04 12:10 51.99659 -0.75921 12451 ft 306 kts 91°
2026-05-04 12:10 51.99656 -0.72529 12103 ft 305 kts 91°
2026-05-04 12:10 51.99651 -0.69050 11750 ft 303 kts 91°
2026-05-04 12:11 51.99643 -0.65642 11388 ft 301 kts 91°
2026-05-04 12:11 51.99633 -0.62253 11043 ft 300 kts 91°
2026-05-04 12:11 51.99624 -0.58874 10687 ft 298 kts 91°
2026-05-04 12:11 51.99617 -0.55516 10344 ft 297 kts 90°
2026-05-04 12:12 51.99736 -0.52182 10011 ft 295 kts 86°
2026-05-04 12:12 51.99903 -0.48872 9639 ft 293 kts 86°
2026-05-04 12:12 52.00072 -0.45583 9261 ft 291 kts 86°
2026-05-04 12:12 52.00239 -0.42320 8880 ft 289 kts 86°
2026-05-04 12:13 52.00402 -0.39081 8509 ft 287 kts 86°
2026-05-04 12:14 52.01348 -0.19090 6572 ft 274 kts 86°
2026-05-04 12:15 52.01519 -0.15142 6076 ft 271 kts 86°
2026-05-04 12:15 52.01647 -0.12102 5984 ft 270 kts 86°
2026-05-04 12:15 52.01776 -0.09051 5957 ft 270 kts 86°
2026-05-04 12:15 52.01904 -0.06016 5539 ft 268 kts 86°
2026-05-04 12:16 52.02029 -0.03026 5408 ft 256 kts 86°
2026-05-04 12:16 52.02107 -0.01149 5328 ft 247 kts 86°
2026-05-04 12:16 52.02219 0.01574 5149 ft 238 kts 86°
2026-05-04 12:16 52.02015 0.04188 4852 ft 234 kts 114°
2026-05-04 12:17 52.01111 0.06402 4518 ft 232 kts 129°
2026-05-04 12:17 52.00064 0.08401 4174 ft 232 kts 131°
2026-05-04 12:17 51.98797 0.09947 3992 ft 230 kts 160°
2026-05-04 12:17 51.97229 0.10223 3702 ft 229 kts 186°
2026-05-04 12:18 51.95648 0.09825 3346 ft 230 kts 191°
2026-05-04 12:18 51.94081 0.09336 3042 ft 228 kts 191°
2026-05-04 12:18 51.92562 0.08851 3003 ft 219 kts 191°
2026-05-04 12:18 51.91080 0.08377 3007 ft 216 kts 191°
2026-05-04 12:19 51.89638 0.07728 3005 ft 214 kts 202°
2026-05-04 12:19 51.88303 0.06697 2768 ft 213 kts 209°
2026-05-04 12:19 51.87027 0.05496 2547 ft 212 kts 211°
2026-05-04 12:19 51.85773 0.04279 2493 ft 200 kts 211°
2026-05-04 12:20 51.84611 0.03147 2509 ft 192 kts 211°
2026-05-04 12:20 51.83490 0.02055 2530 ft 189 kts 211°
2026-05-04 12:20 51.82350 0.00947 2500 ft 188 kts 211°
2026-05-04 12:20 51.81202 -0.00056 2489 ft 188 kts 197°
2026-05-04 12:21 51.79903 -0.00166 2500 ft 188 kts 174°
2026-05-04 12:21 51.78605 0.00090 2498 ft 188 kts 172°
2026-05-04 12:21 51.77363 0.00666 2499 ft 187 kts 146°
2026-05-04 12:21 51.76524 0.02228 2502 ft 186 kts 113°
2026-05-04 12:22 51.76345 0.04277 2503 ft 185 kts 80°
2026-05-04 12:22 51.76883 0.06114 2502 ft 184 kts 46°
2026-05-04 12:22 51.77820 0.07534 2503 ft 184 kts 42°
2026-05-04 12:22 51.78764 0.08931 2502 ft 184 kts 42°
2026-05-04 12:23 51.79686 0.10303 2456 ft 175 kts 42°
2026-05-04 12:23 51.80571 0.11622 2291 ft 167 kts 42°
2026-05-04 12:23 51.81416 0.12881 2101 ft 164 kts 42°
2026-05-04 12:23 51.82248 0.14124 1885 ft 160 kts 42°
2026-05-04 12:24 51.83046 0.15316 1664 ft 146 kts 42°
2026-05-04 12:24 51.83760 0.16383 1474 ft 141 kts 42°
2026-05-04 12:24 51.84471 0.17447 1277 ft 138 kts 42°
2026-05-04 12:24 51.85172 0.18499 1091 ft 137 kts 43°
2026-05-04 12:25 51.85879 0.19550 906 ft 136 kts 41°
2026-05-04 12:25 51.86568 0.20584 692 ft 135 kts 42°
2026-05-04 12:25 51.87248 0.21611 488 ft 134 kts 43°
2026-05-04 12:25 51.87927 0.22624 346 ft 130 kts 42°
2026-05-04 12:26 51.88487 0.23460 349 ft 82 kts 42°
2026-05-04 12:26 51.88787 0.23908 335 ft 46 kts 43°
2026-05-04 12:26 51.89000 0.24235 347 ft 39 kts 46°
2026-05-04 12:26 51.89088 0.24493 337 ft 25 kts 68°
2026-05-04 12:27 51.89142 0.24712 346 ft 10 kts 66°
2026-05-04 12:27 51.89152 0.24748 353 ft 0 kts 67°
2026-05-04 12:27 51.89168 0.24828 349 ft 14 kts 88°
2026-05-04 12:28 51.89163 0.24957 354 ft 11 kts 62°
2026-05-04 12:28 51.89211 0.25038 349 ft 10 kts 49°
2026-05-04 12:28 51.89243 0.25123 357 ft 8 kts 65°
2026-05-04 12:28 51.89227 0.25195 352 ft 8 kts 135°
2026-05-04 12:29 51.89183 0.25288 352 ft 10 kts 116°
2026-05-04 12:29 51.89149 0.25376 356 ft 9 kts 133°
2026-05-04 12:29 51.89110 0.25443 355 ft 8 kts 133°
2026-05-04 12:29 51.89076 0.25504 350 ft 7 kts 132°
2026-05-04 12:30 51.89045 0.25558 354 ft 6 kts 133°
2026-05-04 12:30 51.89025 0.25608 356 ft 4 kts 91°
2026-05-04 12:30 51.89040 0.25636 359 ft 3 kts 42°
2026-05-04 12:30 51.89052 0.25654 352 ft 2 kts 42°
2026-05-04 12:31 51.89059 0.25664 352 ft 0 kts 43°